小惑星2010 LG61

2010 LG61

English version
Home page
Updated on August 21, 2010

---------------------------------------------------------------------

・ プロフィール

発見日 2010年6月2日
発見光度 21等
発見者 Wide Field Infrared Survey Explorer (NASA)

・ 軌道要素

The following orbital elements are taken from MPEC 2010-O49:

Epoch 2010 July 23.0 TT = JDT 2455400.5                 MPC
M   5.67912              (2000.0)            P               Q
n   0.05200065     Peri.  351.87546     +0.78020877     -0.26942394
a   7.1088094      Node   317.24823     -0.51693127     -0.78588446
e   0.8077127      Incl.  123.73467     -0.35221633     +0.55659353
P  19.0            H   18.5           G   0.15           U   7
From 14 observations 2010 June 2-July 27, mean residual 0".85.

・ 光度変化

        H = 18.5  G = 0.15

---------------------------------------------------------------------

軌道要素はMPCのEphemerides and Orbital Elementsに掲載されたものです。
光度グラフはComet for Windowsで作成したものです。

---------------------------------------------------------------------

Copyright(C) Seiichi Yoshida (comet@aerith.net). All rights reserved.